This is the latest recevied weather packets stored in our database for station/object N8ESC. If no packets are shown the sender has not sent any weather packets the latest 10 day(s).
| Time | Temp. | Humidity | Pressure | Rain* | Wind** | Luminosity | Snow |
|---|---|---|---|---|---|---|---|
| 1777774097 | 5.56° C | 62% | 1011.2 hPa | 0 mm | - | 0 W/m² | - |
| 1777773795 | 5.56° C | 63% | 1011.2 hPa | 0 mm | - | 0 W/m² | - |
| 1777772883 | 5° C | 66% | 1011.1 hPa | 0 mm | - | 0 W/m² | - |
| 1777771370 | 5° C | 66% | 1011.5 hPa | 0 mm | - | 0 W/m² | - |
| 1777771067 | 5.56° C | 67% | 1011.5 hPa | 0 mm | - | 0 W/m² | - |
| 1777770157 | 5.56° C | 67% | 1011.4 hPa | 0 mm | - | 2 W/m² | - |
| 1777769854 | 5.56° C | 68% | 1011.5 hPa | 0 mm | - | 3 W/m² | - |
| 1777768946 | 6.11° C | 67% | 1011.5 hPa | 0 mm | - | 10 W/m² | - |
| 1777768643 | 6.67° C | 67% | 1011.5 hPa | 0 mm | - | 12 W/m² | - |
| 1777768340 | 6.67° C | 66% | 1011.7 hPa | 0 mm | - | 16 W/m² | - |
| 1777768036 | 6.67° C | 65% | 1011.5 hPa | 0 mm | - | 18 W/m² | - |
| 1777767733 | 6.67° C | 64% | 1011.4 hPa | 0 mm | - | 22 W/m² | - |
| 1777767429 | 7.22° C | 65% | 1011.5 hPa | 0 mm | - | 27 W/m² | - |
| 1777767126 | 7.22° C | 64% | 1011.5 hPa | 0 mm | - | 35 W/m² | - |
| 1777766521 | 7.22° C | 65% | 1011.5 hPa | 0 mm | - | 52 W/m² | - |
| 1777766217 | 7.22° C | 64% | 1011.5 hPa | 0 mm | - | 60 W/m² | - |
| 1777765309 | 7.22° C | 65% | 1011.4 hPa | 0 mm | - | 84 W/m² | - |
| 1777765005 | 7.22° C | 63% | 1011.7 hPa | 0 mm | - | 92 W/m² | - |
| 1777764702 | 7.78° C | 62% | 1011.6 hPa | 0 mm | - | 103 W/m² | - |
| 1777763490 | 7.78° C | 60% | 1011.5 hPa | 0 mm | - | 145 W/m² | - |
| 1777761671 | 8.33° C | 59% | 1011.7 hPa | 0 mm | - | 229 W/m² | - |
| 1777761369 | 7.78° C | 60% | 1011.9 hPa | 0 mm | - | 248 W/m² | - |
| 1777761068 | 7.78° C | 59% | 1011.7 hPa | 0 mm | - | 209 W/m² | - |
| 1777760764 | 8.33° C | 58% | 1011.8 hPa | 0 mm | - | 159 W/m² | - |
| 1777760460 | 8.33° C | 59% | 1011.9 hPa | 0 mm | - | 287 W/m² | - |
* Rain latest hour (hover to see other rain measurements)
** Current wind speed in m/s (hover to see current wind gust speed)